| time (UTC) | temp F | wind direction | speed MPH | gust MPH | rain 1hr in | rain 24hr in | rain mn in | humidity % | barometer mb |
| 20260506080428 | 60 | 240 | 1.0 | 1.0 | 0.00 | 0.00 | 0.00 | 76 | 1006.0 |
| 20260506073428 | 60 | 70 | 0.0 | 0.0 | 0.00 | 0.00 | 0.00 | 77 | 1006.0 |
| 20260506072927 | 60 | 229 | 1.0 | 1.0 | 0.00 | 0.00 | 0.00 | 79 | 1006.0 |
| 20260506072426 | 60 | 185 | 1.0 | 1.0 | 0.00 | 0.00 | 0.00 | 78 | 1006.0 |
| 20260506071928 | 59 | 35 | 0.0 | 0.0 | 0.00 | 0.00 | 0.00 | 78 | 1006.0 |
| 20260506071427 | 60 | 182 | 0.0 | 1.0 | 0.00 | 0.00 | 0.00 | 78 | 1006.0 |
| 20260506070927 | 60 | 31 | 0.0 | 0.0 | 0.00 | 0.00 | 0.00 | 78 | 1006.0 |
| 20260506070426 | 59 | 255 | 1.0 | 2.0 | 0.00 | 0.00 | 0.00 | 79 | 1006.0 |
| 20260506062431 | 57 | 57 | 0.0 | 0.0 | 0.00 | 0.00 | 0.00 | 87 | 1006.0 |
| 20260506061928 | 55 | 41 | 0.0 | 0.0 | 0.00 | 0.00 | 0.00 | 90 | 1006.0 |
| 20260506061425 | 54 | 321 | 0.0 | 1.0 | 0.00 | 0.00 | 0.00 | 92 | 1006.0 |
| 20260506060927 | 53 | 1 | 0.0 | 1.0 | 0.00 | 0.00 | 0.00 | 94 | 1006.0 |
| 20260506060428 | 52 | 346 | 0.0 | 0.0 | 0.00 | 0.00 | 0.00 | 96 | 1006.0 |
| 20260506050927 | 49 | 29 | 0.0 | 0.0 | 0.00 | 0.00 | 0.00 | 99 | 1006.0 |
| 20260506050425 | 49 | 46 | 0.0 | 0.0 | 0.00 | 0.00 | 0.00 | 99 | 1006.0 |
| 20260506044925 | 48 | 23 | 0.0 | 0.0 | 0.00 | 0.00 | 0.00 | 99 | 1006.0 |
| 20260506044426 | 48 | 26 | 0.0 | 0.0 | 0.00 | 0.00 | 0.00 | 99 | 1006.0 |
| 20260506043925 | 47 | 23 | 0.0 | 0.0 | 0.00 | 0.00 | 0.00 | 99 | 1006.0 |
| 20260506043426 | 47 | 23 | 0.0 | 0.0 | 0.00 | 0.00 | 0.00 | 99 | 1006.0 |
| 20260506042926 | 47 | 22 | 0.0 | 0.0 | 0.00 | 0.00 | 0.00 | 99 | 1006.0 |
| 20260506042427 | 47 | 22 | 0.0 | 0.0 | 0.00 | 0.00 | 0.00 | 99 | 1007.0 |
| 20260506041927 | 47 | 42 | 0.0 | 0.0 | 0.00 | 0.00 | 0.00 | 99 | 1006.0 |
| 20260506041426 | 47 | 27 | 0.0 | 0.0 | 0.00 | 0.00 | 0.00 | 99 | 1006.0 |
| 20260506040927 | 47 | 31 | 0.0 | 0.0 | 0.00 | 0.00 | 0.00 | 99 | 1007.0 |
| 20260506040425 | 47 | 22 | 0.0 | 0.0 | 0.00 | 0.00 | 0.00 | 99 | 1006.0 |
| 20260506035927 | 46 | 22 | 0.0 | 0.0 | 0.00 | 0.00 | 0.00 | 99 | 1006.0 |
| 20260506035427 | 46 | 22 | 0.0 | 0.0 | 0.00 | 0.00 | 0.00 | 99 | 1006.0 |
| 20260506034925 | 46 | 23 | 0.0 | 0.0 | 0.00 | 0.00 | 0.00 | 99 | 1006.0 |
| 20260506034426 | 47 | 23 | 0.0 | 0.0 | 0.00 | 0.00 | 0.00 | 99 | 1007.0 |
| 20260506033925 | 47 | 23 | 0.0 | 0.0 | 0.00 | 0.00 | 0.00 | 99 | 1006.0 |
| 20260506033427 | 47 | 22 | 0.0 | 0.0 | 0.00 | 0.00 | 0.00 | 99 | 1007.0 |
| 20260506032931 | 47 | 23 | 0.0 | 0.0 | 0.00 | 0.00 | 0.00 | 99 | 1007.0 |
| 20260506032427 | 47 | 18 | 0.0 | 0.0 | 0.00 | 0.00 | 0.00 | 99 | 1007.0 |
| 20260506031927 | 47 | 20 | 0.0 | 0.0 | 0.00 | 0.00 | 0.00 | 99 | 1007.0 |
| 20260506031427 | 47 | 20 | 0.0 | 0.0 | 0.00 | 0.00 | 0.00 | 99 | 1006.0 |
| 20260506030926 | 48 | 21 | 0.0 | 0.0 | 0.00 | 0.00 | 0.00 | 99 | 1007.0 |
| 20260506030427 | 48 | 1 | 0.0 | 0.0 | 0.00 | 0.00 | 0.00 | 99 | 1007.0 |
| 20260506025925 | 48 | 2 | 0.0 | 0.0 | 0.00 | 0.00 | 0.00 | 99 | 1007.0 |
| 20260506025427 | 48 | 6 | 0.0 | 0.0 | 0.00 | 0.00 | 0.00 | 99 | 1007.0 |
| 20260506024926 | 48 | 26 | 0.0 | 0.0 | 0.00 | 0.00 | 0.00 | 99 | 1007.0 |
| 20260506024425 | 48 | 16 | 0.0 | 0.0 | 0.00 | 0.00 | 0.00 | 99 | 1007.0 |
| 20260506023925 | 48 | 21 | 0.0 | 0.0 | 0.00 | 0.00 | 0.00 | 99 | 1007.0 |
| 20260506023426 | 48 | 16 | 0.0 | 1.0 | 0.00 | 0.00 | 0.00 | 99 | 1006.0 |
| 20260506022926 | 48 | 89 | 0.0 | 0.0 | 0.00 | 0.00 | 0.00 | 99 | 1007.0 |
| 20260506022427 | 48 | 19 | 0.0 | 0.0 | 0.00 | 0.00 | 0.00 | 99 | 1007.0 |
| 20260506021927 | 48 | 17 | 0.0 | 0.0 | 0.00 | 0.00 | 0.00 | 99 | 1007.0 |
| 20260506021425 | 48 | 17 | 0.0 | 0.0 | 0.00 | 0.00 | 0.00 | 99 | 1007.0 |
| 20260506020927 | 49 | 17 | 0.0 | 0.0 | 0.00 | 0.00 | 0.00 | 99 | 1007.0 |
| 20260506020427 | 48 | 34 | 0.0 | 0.0 | 0.00 | 0.00 | 0.00 | 99 | 1007.0 |
| 20260506015926 | 49 | 21 | 0.0 | 0.0 | 0.00 | 0.00 | 0.00 | 99 | 1007.0 |
| 20260506015426 | 49 | 46 | 1.0 | 1.0 | 0.00 | 0.00 | 0.00 | 99 | 1007.0 |
| 20260506014926 | 49 | 25 | 0.0 | 0.0 | 0.00 | 0.00 | 0.00 | 99 | 1007.0 |
| 20260506014428 | 49 | 345 | 0.0 | 0.0 | 0.00 | 0.00 | 0.00 | 99 | 1007.0 |
| 20260506013926 | 49 | 25 | 0.0 | 0.0 | 0.00 | 0.00 | 0.00 | 99 | 1007.0 |
| 20260506013426 | 49 | 25 | 0.0 | 0.0 | 0.00 | 0.00 | 0.00 | 99 | 1007.0 |
| 20260506012926 | 49 | 32 | 0.0 | 0.0 | 0.00 | 0.00 | 0.00 | 99 | 1007.0 |
| 20260506012425 | 49 | 24 | 0.0 | 0.0 | 0.00 | 0.00 | 0.00 | 99 | 1007.0 |
| 20260506011925 | 49 | 6 | 0.0 | 1.0 | 0.00 | 0.00 | 0.00 | 99 | 1006.0 |
| 20260506011425 | 49 | 23 | 0.0 | 0.0 | 0.00 | 0.00 | 0.00 | 99 | 1007.0 |
| 20260506010925 | 49 | 30 | 0.0 | 0.0 | 0.00 | 0.00 | 0.00 | 99 | 1007.0 |
| 20260506010428 | 48 | 62 | 0.0 | 0.0 | 0.00 | 0.00 | 0.00 | 99 | 1006.0 |
| 20260506005925 | 48 | 21 | 0.0 | 0.0 | 0.00 | 0.00 | 0.00 | 99 | 1006.0 |
| 20260506005427 | 48 | 21 | 0.0 | 0.0 | 0.00 | 0.00 | 0.00 | 99 | 1007.0 |
| 20260506004927 | 48 | 20 | 0.0 | 0.0 | 0.00 | 0.00 | 0.00 | 99 | 1007.0 |
| 20260506004427 | 48 | 20 | 0.0 | 0.0 | 0.00 | 0.00 | 0.00 | 98 | 1007.0 |
| 20260506003925 | 49 | 21 | 0.0 | 0.0 | 0.00 | 0.00 | 0.00 | 99 | 1007.0 |
| 20260506003427 | 49 | 20 | 0.0 | 0.0 | 0.00 | 0.00 | 0.00 | 98 | 1007.0 |
| 20260506002925 | 49 | 20 | 0.0 | 0.0 | 0.00 | 0.00 | 0.00 | 98 | 1007.0 |
| 20260506002427 | 49 | 18 | 0.0 | 0.0 | 0.00 | 0.00 | 0.00 | 98 | 1007.0 |
| 20260506001925 | 49 | 20 | 0.0 | 0.0 | 0.00 | 0.00 | 0.00 | 98 | 1007.0 |
| 20260506001425 | 49 | 20 | 0.0 | 0.0 | 0.00 | 0.00 | 0.00 | 98 | 1007.0 |
| 20260506000925 | 49 | 20 | 0.0 | 0.0 | 0.00 | 0.00 | 0.00 | 97 | 1007.0 |
| 20260506000425 | 50 | 20 | 0.0 | 0.0 | 0.00 | 0.00 | 0.00 | 97 | 1007.0 |
| 20260505235925 | 50 | 18 | 0.0 | 0.0 | 0.00 | 0.00 | 0.00 | 97 | 1007.0 |
| 20260505235427 | 50 | 18 | 0.0 | 0.0 | 0.00 | 0.00 | 0.00 | 97 | 1007.0 |
| 20260505234926 | 50 | 18 | 0.0 | 0.0 | 0.00 | 0.00 | 0.00 | 96 | 1007.0 |
| 20260505234425 | 50 | 18 | 0.0 | 0.0 | 0.00 | 0.00 | 0.00 | 96 | 1007.0 |
| 20260505233926 | 50 | 351 | 0.0 | 0.0 | 0.00 | 0.00 | 0.00 | 96 | 1007.0 |
| 20260505233427 | 51 | 347 | 0.0 | 0.0 | 0.00 | 0.00 | 0.00 | 96 | 1007.0 |
| 20260505232926 | 51 | 56 | 0.0 | 0.0 | 0.00 | 0.00 | 0.00 | 95 | 1007.0 |
| 20260505232425 | 51 | 56 | 0.0 | 0.0 | 0.00 | 0.00 | 0.00 | 95 | 1007.0 |
| 20260505231926 | 52 | 56 | 0.0 | 0.0 | 0.00 | 0.00 | 0.00 | 95 | 1007.0 |
| 20260505231427 | 52 | 56 | 0.0 | 0.0 | 0.00 | 0.00 | 0.00 | 94 | 1007.0 |
| 20260505230926 | 52 | 56 | 0.0 | 0.0 | 0.00 | 0.00 | 0.00 | 94 | 1007.0 |
| 20260505230427 | 52 | 54 | 0.0 | 0.0 | 0.00 | 0.00 | 0.00 | 95 | 1007.0 |
| 20260505225927 | 52 | 49 | 0.0 | 0.0 | 0.00 | 0.00 | 0.00 | 95 | 1008.0 |
| 20260505225425 | 52 | 39 | 0.0 | 0.0 | 0.00 | 0.00 | 0.00 | 96 | 1008.0 |
| 20260505224925 | 52 | 46 | 0.0 | 0.0 | 0.00 | 0.00 | 0.00 | 95 | 1008.0 |
| 20260505224425 | 52 | 46 | 0.0 | 0.0 | 0.00 | 0.00 | 0.00 | 95 | 1008.0 |
| 20260505223926 | 52 | 46 | 0.0 | 0.0 | 0.00 | 0.00 | 0.00 | 95 | 1007.0 |
| 20260505223427 | 52 | 46 | 0.0 | 0.0 | 0.00 | 0.00 | 0.00 | 94 | 1007.0 |
| 20260505222925 | 53 | 46 | 0.0 | 0.0 | 0.00 | 0.00 | 0.00 | 93 | 1007.0 |
| 20260505222427 | 53 | 46 | 0.0 | 0.0 | 0.00 | 0.00 | 0.00 | 93 | 1007.0 |
| 20260505221925 | 53 | 68 | 0.0 | 0.0 | 0.00 | 0.00 | 0.00 | 93 | 1008.0 |
| 20260505221427 | 53 | 68 | 0.0 | 0.0 | 0.00 | 0.00 | 0.00 | 93 | 1007.0 |
| 20260505220927 | 53 | 39 | 0.0 | 0.0 | 0.00 | 0.00 | 0.00 | 93 | 1007.0 |
| 20260505220425 | 53 | 79 | 0.0 | 0.0 | 0.00 | 0.00 | 0.00 | 92 | 1007.0 |
| 20260505215928 | 53 | 80 | 0.0 | 0.0 | 0.00 | 0.00 | 0.00 | 91 | 1007.0 |
| 20260505215427 | 54 | 60 | 0.0 | 0.0 | 0.00 | 0.00 | 0.00 | 91 | 1007.0 |
| 20260505214927 | 54 | 73 | 0.0 | 0.0 | 0.00 | 0.00 | 0.00 | 90 | 1007.0 |
| 20260505214427 | 54 | 249 | 0.0 | 0.0 | 0.00 | 0.00 | 0.00 | 89 | 1007.0 |
| 20260505213926 | 55 | 254 | 0.0 | 1.0 | 0.00 | 0.00 | 0.00 | 88 | 1007.0 |
| 20260505213427 | 55 | 168 | 0.0 | 0.0 | 0.00 | 0.00 | 0.00 | 88 | 1007.0 |
| 20260505212926 | 55 | 83 | 0.0 | 0.0 | 0.00 | 0.00 | 0.00 | 88 | 1007.0 |
| 20260505212427 | 55 | 255 | 0.0 | 1.0 | 0.00 | 0.00 | 0.00 | 89 | 1007.0 |
| 20260505211925 | 55 | 246 | 0.0 | 1.0 | 0.00 | 0.00 | 0.00 | 90 | 1007.0 |
| 20260505211427 | 54 | 315 | 0.0 | 0.0 | 0.00 | 0.00 | 0.00 | 94 | 1007.0 |
| 20260505210928 | 54 | 341 | 0.0 | 1.0 | 0.00 | 0.00 | 0.00 | 94 | 1007.0 |
| 20260505210429 | 54 | 31 | 0.0 | 0.0 | 0.00 | 0.00 | 0.00 | 94 | 1007.0 |
| 20260505205927 | 54 | 30 | 0.0 | 0.0 | 0.00 | 0.00 | 0.00 | 93 | 1007.0 |
| 20260505205427 | 55 | 49 | 0.0 | 0.0 | 0.00 | 0.00 | 0.00 | 93 | 1007.0 |
| 20260505204929 | 55 | 46 | 0.0 | 0.0 | 0.00 | 0.00 | 0.00 | 93 | 1007.0 |
| 20260505204429 | 55 | 337 | 0.0 | 0.0 | 0.00 | 0.00 | 0.00 | 93 | 1007.0 |
| 20260505203927 | 55 | 24 | 0.0 | 0.0 | 0.00 | 0.00 | 0.00 | 94 | 1007.0 |
| 20260505203427 | 55 | 318 | 0.0 | 0.0 | 0.00 | 0.00 | 0.00 | 94 | 1007.0 |
| 20260505202926 | 55 | 63 | 0.0 | 0.0 | 0.00 | 0.00 | 0.00 | 94 | 1007.0 |
| 20260505202427 | 55 | 44 | 0.0 | 0.0 | 0.00 | 0.00 | 0.00 | 93 | 1007.0 |
| 20260505201927 | 55 | 44 | 0.0 | 0.0 | 0.00 | 0.00 | 0.00 | 93 | 1007.0 |
| 20260505201429 | 55 | 43 | 0.0 | 0.0 | 0.00 | 0.00 | 0.00 | 92 | 1007.0 |
| 20260505200927 | 55 | 44 | 0.0 | 0.0 | 0.00 | 0.00 | 0.00 | 92 | 1007.0 |
| 20260505200428 | 55 | 43 | 0.0 | 0.0 | 0.00 | 0.00 | 0.00 | 92 | 1007.0 |
| 20260505195931 | 56 | 13 | 0.0 | 0.0 | 0.00 | 0.00 | 0.00 | 92 | 1007.0 |
| 20260505195429 | 56 | 16 | 0.0 | 0.0 | 0.00 | 0.00 | 0.00 | 92 | 1007.0 |
| 20260505194929 | 56 | 346 | 0.0 | 0.0 | 0.00 | 0.00 | 0.00 | 92 | 1007.0 |
| 20260505194426 | 56 | 287 | 0.0 | 0.0 | 0.00 | 0.00 | 0.00 | 91 | 1007.0 |
| 20260505193927 | 56 | 273 | 1.0 | 1.0 | 0.00 | 0.00 | 0.00 | 91 | 1007.0 |
| 20260505193427 | 56 | 275 | 1.0 | 2.0 | 0.00 | 0.00 | 0.00 | 91 | 1007.0 |
| 20260505192927 | 56 | 290 | 2.0 | 2.0 | 0.00 | 0.00 | 0.00 | 91 | 1007.0 |
| 20260505192427 | 56 | 311 | 1.0 | 2.0 | 0.00 | 0.00 | 0.00 | 92 | 1006.0 |
| 20260505191928 | 56 | 281 | 1.0 | 1.0 | 0.00 | 0.00 | 0.00 | 91 | 1007.0 |
| 20260505191427 | 56 | 267 | 1.0 | 1.0 | 0.00 | 0.00 | 0.00 | 91 | 1007.0 |
| 20260505190926 | 57 | 314 | 0.0 | 0.0 | 0.00 | 0.00 | 0.00 | 91 | 1006.0 |
| 20260505190426 | 57 | 276 | 2.0 | 2.0 | 0.00 | 0.00 | 0.00 | 91 | 1007.0 |
| 20260505185928 | 57 | 269 | 2.0 | 3.0 | 0.00 | 0.00 | 0.00 | 91 | 1006.0 |
| 20260505185428 | 57 | 251 | 2.0 | 3.0 | 0.00 | 0.00 | 0.00 | 90 | 1007.0 |
| 20260505184928 | 57 | 273 | 1.0 | 2.0 | 0.00 | 0.00 | 0.00 | 90 | 1006.0 |
| 20260505184427 | 57 | 298 | 3.0 | 5.0 | 0.00 | 0.00 | 0.00 | 90 | 1006.0 |
| 20260505183925 | 57 | 267 | 2.0 | 2.0 | 0.00 | 0.00 | 0.00 | 91 | 1006.0 |
| 20260505183429 | 57 | 299 | 2.0 | 2.0 | 0.00 | 0.00 | 0.00 | 91 | 1006.0 |
| 20260505182929 | 57 | 294 | 1.0 | 2.0 | 0.00 | 0.00 | 0.00 | 91 | 1006.0 |
| 20260505182427 | 57 | 336 | 0.0 | 0.0 | 0.00 | 0.00 | 0.00 | 90 | 1006.0 |
| 20260505181440 | 58 | 258 | 1.0 | 1.0 | 0.00 | 0.00 | 0.00 | 89 | 1006.0 |
| 20260505180927 | 57 | 326 | 1.0 | 2.0 | 0.00 | 0.00 | 0.00 | 89 | 1006.0 |
| 20260505180428 | 57 | 332 | 1.0 | 2.0 | 0.00 | 0.00 | 0.00 | 90 | 1006.0 |
| 20260505175925 | 57 | 240 | 0.0 | 0.0 | 0.00 | 0.00 | 0.00 | 90 | 1006.0 |
| 20260505175426 | 58 | 269 | 0.0 | 1.0 | 0.00 | 0.00 | 0.00 | 90 | 1006.0 |
| 20260505174927 | 57 | 354 | 0.0 | 0.0 | 0.00 | 0.00 | 0.00 | 90 | 1006.0 |
| 20260505174428 | 57 | 336 | 0.0 | 0.0 | 0.00 | 0.00 | 0.00 | 90 | 1006.0 |
| 20260505173927 | 57 | 24 | 0.0 | 0.0 | 0.00 | 0.00 | 0.00 | 90 | 1006.0 |
| 20260505173425 | 57 | 308 | 0.0 | 1.0 | 0.00 | 0.00 | 0.00 | 90 | 1006.0 |
| 20260505172927 | 57 | 235 | 0.0 | 0.0 | 0.00 | 0.00 | 0.00 | 89 | 1006.0 |
| 20260505172428 | 57 | 268 | 3.0 | 3.0 | 0.00 | 0.00 | 0.00 | 89 | 1006.0 |
| 20260505171926 | 57 | 294 | 2.0 | 3.0 | 0.00 | 0.00 | 0.00 | 88 | 1006.0 |
| 20260505171426 | 58 | 255 | 1.0 | 2.0 | 0.00 | 0.00 | 0.00 | 89 | 1006.0 |
| 20260505170927 | 58 | 276 | 2.0 | 2.0 | 0.00 | 0.00 | 0.00 | 88 | 1006.0 |
| 20260505170426 | 58 | 217 | 2.0 | 2.0 | 0.00 | 0.00 | 0.00 | 87 | 1006.0 |
| 20260505165928 | 59 | 288 | 2.0 | 2.0 | 0.00 | 0.00 | 0.00 | 87 | 1006.0 |
| 20260505165427 | 59 | 258 | 2.0 | 3.0 | 0.00 | 0.00 | 0.00 | 88 | 1006.0 |
| 20260505164929 | 59 | 279 | 3.0 | 3.0 | 0.00 | 0.00 | 0.00 | 87 | 1006.0 |
| 20260505164431 | 59 | 284 | 3.0 | 3.0 | 0.00 | 0.00 | 0.00 | 87 | 1006.0 |
| 20260505163926 | 58 | 307 | 4.0 | 6.0 | 0.00 | 0.00 | 0.00 | 87 | 1006.0 |
| 20260505163425 | 58 | 250 | 3.0 | 3.0 | 0.00 | 0.00 | 0.00 | 87 | 1006.0 |
| 20260505162928 | 58 | 265 | 3.0 | 3.0 | 0.00 | 0.00 | 0.00 | 87 | 1006.0 |
| 20260505162428 | 58 | 310 | 4.0 | 6.0 | 0.00 | 0.00 | 0.00 | 87 | 1006.0 |
| 20260505161929 | 58 | 253 | 3.0 | 5.0 | 0.00 | 0.00 | 0.00 | 87 | 1006.0 |
| 20260505161425 | 58 | 275 | 4.0 | 6.0 | 0.00 | 0.00 | 0.00 | 89 | 1006.0 |
| 20260505160928 | 58 | 273 | 1.0 | 2.0 | 0.00 | 0.00 | 0.00 | 90 | 1006.0 |
| 20260505160426 | 58 | 286 | 1.0 | 2.0 | 0.00 | 0.00 | 0.00 | 90 | 1006.0 |
| 20260505152925 | 59 | 307 | 5.0 | 9.0 | 0.00 | 0.00 | 0.00 | 90 | 1006.0 |
| 20260505152428 | 59 | 268 | 5.0 | 8.0 | 0.00 | 0.00 | 0.00 | 89 | 1006.0 |
| 20260505151928 | 59 | 299 | 7.0 | 11.0 | 0.00 | 0.00 | 0.00 | 87 | 1006.0 |
| 20260505151428 | 59 | 320 | 6.0 | 8.0 | 0.00 | 0.00 | 0.00 | 86 | 1006.0 |
| 20260505150931 | 60 | 241 | 7.0 | 11.0 | 0.00 | 0.00 | 0.00 | 85 | 1006.0 |
| 20260505150427 | 60 | 230 | 6.0 | 8.0 | 0.00 | 0.00 | 0.00 | 86 | 1006.0 |
| 20260505140429 | 62 | 319 | 2.0 | 2.0 | 0.00 | 0.00 | 0.00 | 80 | 1006.0 |
| 20260505124929 | 71 | 338 | 0.0 | 0.0 | 0.00 | 0.00 | 0.00 | 55 | 1006.0 |
| 20260505124425 | 71 | 238 | 1.0 | 1.0 | 0.00 | 0.00 | 0.00 | 52 | 1006.0 |
| 20260505123928 | 71 | 157 | 1.0 | 1.0 | 0.00 | 0.00 | 0.00 | 56 | 1006.0 |
| 20260505123428 | 71 | 241 | 2.0 | 2.0 | 0.00 | 0.00 | 0.00 | 52 | 1006.0 |
| 20260505122926 | 70 | 347 | 1.0 | 1.0 | 0.00 | 0.00 | 0.00 | 54 | 1006.0 |
| 20260505122427 | 71 | 330 | 1.0 | 2.0 | 0.00 | 0.00 | 0.00 | 53 | 1006.0 |
| 20260505121927 | 71 | 258 | 2.0 | 2.0 | 0.00 | 0.00 | 0.00 | 50 | 1006.0 |
| 20260505121427 | 71 | 277 | 1.0 | 1.0 | 0.00 | 0.00 | 0.00 | 53 | 1006.0 |
| 20260505120928 | 71 | 221 | 4.0 | 5.0 | 0.00 | 0.00 | 0.00 | 51 | 1006.0 |
| 20260505120425 | 71 | 224 | 3.0 | 3.0 | 0.00 | 0.00 | 0.00 | 52 | 1006.0 |
| 20260505115925 | 70 | 311 | 0.0 | 1.0 | 0.00 | 0.00 | 0.00 | 52 | 1006.0 |
| 20260505115426 | 71 | 329 | 2.0 | 2.0 | 0.00 | 0.00 | 0.00 | 53 | 1006.0 |
| 20260505114927 | 70 | 243 | 2.0 | 2.0 | 0.00 | 0.00 | 0.00 | 52 | 1006.0 |
| 20260505114425 | 70 | 281 | 2.0 | 2.0 | 0.00 | 0.00 | 0.00 | 53 | 1006.0 |
| 20260505113927 | 70 | 267 | 1.0 | 1.0 | 0.00 | 0.00 | 0.00 | 51 | 1006.0 |
| 20260505113431 | 71 | 280 | 2.0 | 3.0 | 0.00 | 0.00 | 0.00 | 51 | 1006.0 |
| 20260505112928 | 71 | 261 | 2.0 | 2.0 | 0.00 | 0.00 | 0.00 | 53 | 1006.0 |
| 20260505112427 | 71 | 253 | 1.0 | 1.0 | 0.00 | 0.00 | 0.00 | 52 | 1006.0 |
| 20260505111927 | 72 | 273 | 2.0 | 3.0 | 0.00 | 0.00 | 0.00 | 52 | 1006.0 |
| 20260505111428 | 72 | 304 | 1.0 | 1.0 | 0.00 | 0.00 | 0.00 | 51 | 1006.0 |
| 20260505110927 | 72 | 36 | 0.0 | 0.0 | 0.00 | 0.00 | 0.00 | 51 | 1006.0 |
| 20260505110427 | 71 | 259 | 0.0 | 1.0 | 0.00 | 0.00 | 0.00 | 52 | 1006.0 |
| 20260505101927 | 71 | 264 | 2.0 | 5.0 | 0.00 | 0.00 | 0.00 | 56 | 1006.0 |
| 20260505101430 | 71 | 268 | 4.0 | 6.0 | 0.00 | 0.00 | 0.00 | 52 | 1006.0 |
| 20260505100926 | 72 | 256 | 2.0 | 3.0 | 0.00 | 0.00 | 0.00 | 52 | 1007.0 |
| 20260505100426 | 71 | 300 | 3.0 | 5.0 | 0.00 | 0.00 | 0.00 | 58 | 1007.0 |
| 20260505095928 | 71 | 290 | 1.0 | 1.0 | 0.00 | 0.00 | 0.00 | 51 | 1007.0 |
| 20260505095428 | 71 | 82 | 1.0 | 1.0 | 0.00 | 0.00 | 0.00 | 57 | 1007.0 |
| 20260505094925 | 72 | 215 | 2.0 | 2.0 | 0.00 | 0.00 | 0.00 | 62 | 1007.0 |
| 20260505094426 | 71 | 42 | 1.0 | 1.0 | 0.00 | 0.00 | 0.00 | 59 | 1007.0 |
| 20260505093927 | 70 | 6 | 0.0 | 0.0 | 0.00 | 0.00 | 0.00 | 60 | 1007.0 |
| 20260505093427 | 69 | 7 | 0.0 | 0.0 | 0.00 | 0.00 | 0.00 | 61 | 1007.0 |
| 20260505092927 | 70 | 5 | 0.0 | 1.0 | 0.00 | 0.00 | 0.00 | 61 | 1007.0 |
| 20260505092429 | 69 | 207 | 1.0 | 2.0 | 0.00 | 0.00 | 0.00 | 63 | 1007.0 |
| 20260505091927 | 68 | 318 | 0.0 | 1.0 | 0.00 | 0.00 | 0.00 | 65 | 1007.0 |
| 20260505091428 | 68 | 186 | 0.0 | 1.0 | 0.00 | 0.00 | 0.00 | 65 | 1007.0 |
| 20260505090928 | 68 | 43 | 0.0 | 1.0 | 0.00 | 0.00 | 0.00 | 64 | 1007.0 |
| 20260505090428 | 68 | 37 | 2.0 | 3.0 | 0.00 | 0.00 | 0.00 | 66 | 1007.0 |
| 20260505085926 | 67 | 30 | 0.0 | 1.0 | 0.00 | 0.00 | 0.00 | 67 | 1007.0 |
| 20260505085426 | 68 | 24 | 0.0 | 0.0 | 0.00 | 0.00 | 0.00 | 68 | 1007.0 |
| 20260505084927 | 67 | 317 | 0.0 | 0.0 | 0.00 | 0.00 | 0.00 | 69 | 1007.0 |
| 20260505084426 | 67 | 31 | 0.0 | 1.0 | 0.00 | 0.00 | 0.00 | 70 | 1007.0 |
| 20260505083927 | 67 | 313 | 0.0 | 0.0 | 0.00 | 0.00 | 0.00 | 68 | 1007.0 |
| 20260505083426 | 67 | 282 | 1.0 | 1.0 | 0.00 | 0.00 | 0.00 | 68 | 1007.0 |
| 20260505082928 | 66 | 29 | 0.0 | 1.0 | 0.00 | 0.00 | 0.00 | 67 | 1007.0 |
| 20260505082425 | 67 | 16 | 1.0 | 2.0 | 0.00 | 0.00 | 0.00 | 68 | 1007.0 |
| 20260505081926 | 66 | 263 | 1.0 | 1.0 | 0.00 | 0.00 | 0.00 | 69 | 1007.0 |
| 20260505081426 | 65 | 59 | 0.0 | 1.0 | 0.00 | 0.00 | 0.00 | 72 | 1007.0 |
| 20260505080926 | 65 | 296 | 1.0 | 1.0 | 0.00 | 0.00 | 0.00 | 73 | 1007.0 |